Location: Rounton
(54.4000°N, 1.3500°W)
Time: 07:07:24
(UTC+00:00)

Vanguard 1 Rocket - Pass Details

Date: 06 December 2021
Orbit: 651 x 4224 km, 34.3° (Epoch: 19 January)

Event Time Altitude Azimuth Distance (km) Brightness Sun altitude
Rises 01:22:33 0° 202° (SSW) 4,302 - -54.2°
Reaches altitude 10° 01:26:00 10° 186° (S) 3,774 - -53.9°
Maximum altitude 01:32:57 20° 143° (SE) 3,861 - -53.3°
Exits shadow 01:36:05 19° 126° (SE) 4,331 10.7 -53.0°
Drops below altitude 10° 01:43:08 10° 104° (ESE) 5,810 11.6 -52.3°
Sets 01:50:32 0° 92° (E) 7,499 12.4 -51.6°
